TimeCDT,TemperatureF,Dew PointF,Humidity,Sea Level PressureIn,VisibilityMPH,Wind Direction,Wind SpeedMPH,Gust SpeedMPH,PrecipitationIn,Events,Conditions,WindDirDegrees,DateUTC
12:54 AM,54.0,48.9,83,29.92,10.0,Calm,Calm,-,N/A,,Clear,0,2013-09-22 05:54:00
1:54 AM,55.0,48.9,80,29.93,10.0,North,4.6,-,N/A,,Clear,350,2013-09-22 06:54:00
2:54 AM,53.1,48.0,83,29.93,10.0,Calm,Calm,-,N/A,,Clear,0,2013-09-22 07:54:00
3:54 AM,53.1,48.0,83,29.93,10.0,NE,3.5,-,N/A,,Clear,40,2013-09-22 08:54:00
4:54 AM,52.0,48.0,86,29.94,10.0,Calm,Calm,-,N/A,,Clear,0,2013-09-22 09:54:00
5:54 AM,51.1,48.0,89,29.95,10.0,Calm,Calm,-,N/A,,Clear,0,2013-09-22 10:54:00
6:54 AM,51.1,48.0,89,29.98,10.0,NNE,3.5,-,N/A,,Clear,30,2013-09-22 11:54:00
7:54 AM,57.0,50.0,77,30.00,10.0,NE,3.5,-,N/A,,Clear,40,2013-09-22 12:54:00
8:54 AM,60.1,50.0,69,30.01,10.0,ENE,5.8,-,N/A,,Clear,70,2013-09-22 13:54:00
9:54 AM,63.0,50.0,63,30.02,10.0,East,5.8,-,N/A,,Clear,80,2013-09-22 14:54:00
10:54 AM,66.9,50.0,54,30.01,10.0,NNE,6.9,-,N/A,,Clear,30,2013-09-22 15:54:00
11:54 AM,70.0,48.9,47,30.01,10.0,NNE,6.9,-,N/A,,Clear,30,2013-09-22 16:54:00
12:54 PM,71.1,50.0,47,29.99,10.0,NNW,5.8,-,N/A,,Clear,340,2013-09-22 17:54:00
1:54 PM,72.0,48.9,44,29.97,10.0,NE,8.1,-,N/A,,Clear,40,2013-09-22 18:54:00
2:54 PM,73.0,48.9,42,29.95,10.0,Variable,4.6,-,N/A,,Clear,0,2013-09-22 19:54:00
3:54 PM,73.9,48.9,41,29.95,10.0,NNE,5.8,-,N/A,,Clear,30,2013-09-22 20:54:00
4:54 PM,73.9,48.9,41,29.94,10.0,NNE,4.6,-,N/A,,Clear,20,2013-09-22 21:54:00
5:54 PM,71.1,48.9,45,29.94,10.0,NNE,6.9,-,N/A,,Clear,20,2013-09-22 22:54:00
6:54 PM,66.0,51.1,59,29.95,10.0,Calm,Calm,-,N/A,,Clear,0,2013-09-22 23:54:00
7:54 PM,63.0,53.1,70,29.96,10.0,Calm,Calm,-,N/A,,Clear,0,2013-09-23 00:54:00
8:54 PM,60.1,53.1,78,29.98,10.0,Calm,Calm,-,N/A,,Clear,0,2013-09-23 01:54:00
9:54 PM,59.0,52.0,78,29.99,10.0,Calm,Calm,-,N/A,,Clear,0,2013-09-23 02:54:00
10:54 PM,57.0,51.1,81,29.99,10.0,NE,4.6,-,N/A,,Clear,50,2013-09-23 03:54:00
11:54 PM,57.0,51.1,81,29.99,10.0,Calm,Calm,-,N/A,,Clear,0,2013-09-23 04:54:00